Cloud_Cover
77 7 30 79 100 100 100 100 100 100 100 89 27 5 4 3 0 8 0 0 0 0 0 28 100 100 100 100 100 100 100 100 100 100 60 73 24 22 68 67 76 59 82 84 47 61 100 100 65 0 0 100 100 86
70 37 47 92 75 100 100 100 100 100 100 100 54 5 5 5 0 3 0 0 0 0 0 1 100 100 100 100 100 100 100 100 100 100 100 100 99 17 20 52 71 100 100 92 94 100 100 95 15 5 17 100 100 59
100 96 87 100 87 100 100 100 100 100 100 86 37 5 5 5 0 1 8 10 0 0 0 0 90 100 100 100 100 100 100 100 100 100 83 100 47 5 5 5 5 5 5 39 31 100 100 40 48 72 5 5 56 95
100 100 100 100 82 100 100 100 100 100 100 91 5 52 56 5 3 0 0 4 1 2 0 0 4 100 100 100 99 100 100 100 100 100 93 70 26 8 6 14 5 5 31 87 92 73 54 6 5 5 5 0 74 17
100 100 100 100 100 57 100 100 100 100 100 100 42 39 50 5 3 3 24 2 0 0 0 0 0 33 100 100 100 100 100 100 100 91 100 97 78 97 100 9 5 5 67 100 100 94 80 5 22 5 41 5 5 6
100 100 100 100 100 100 100 100 100 100 100 100 96 91 60 5 1 0 0 0 0 0 0 0 0 0 67 100 100 100 100 100 99 100 100 100 100 100 99 92 5 40 100 100 5 34 54 99 94 79 70 99 71 100
100 99 100 100 100 100 100 100 100 100 100 100 100 100 21 5 9 2 0 0 7 0 0 0 0 0 0 69 100 100 100 100 100 100 100 51 48 76 58 27 65 6 100 100 100 34 21 97 90 99 100 100 100 100
100 100 100 100 100 100 99 100 100 100 100 100 100 100 18 5 12 7 1 0 16 0 0 0 0 0 0 0 59 100 100 100 100 100 100 96 51 13 5 24 7 89 93 100 100 99 94 24 53 62 98 100 99 79
100 100 100 100 100 100 100 100 100 100 100 100 100 100 32 14 4 0 0 0 2 0 0 2 0 0 0 0 0 15 100 100 100 100 100 100 40 5 5 56 6 8 88 86 100 100 100 73 52 5 5 12 10 69
100 100 100 100 100 100 100 100 100 100 100 100 100 98 54 21 0 0 0 0 0 0 0 0 0 0 0 0 0 0 1 99 100 100 100 100 68 5 1 5 5 5 5 9 54 73 29 79 99 19 5 5 4 5
100 100 100 100 100 100 100 100 100 100 100 100 100 93 16 10 0 0 0 0 0 0 16 2 0 3 0 4 4 1 5 5 13 82 100 100 100 33 4 0 1 5 3 5 5 5 5 11 13 4 2 2 4 2
100 100 100 100 94 100 100 100 100 100 100 100 100 35 87 6 0 0 0 0 0 0 0 0 2 4 6 5 5 5 2 5 1 4 33 94 100 95 9 5 0 0 3 2 2 5 5 5 5 5 5 5 4 1
100 100 100 100 100 100 100 100 100 100 100 100 77 88 56 4 75 9 3 0 0 0 4 40 95 96 14 67 98 66 5 5 5 5 11 50 39 22 16 5 2 1 0 0 0 0 0 3 5 5 4 0 0 0
100 100 100 100 100 100 100 100 100 100 99 65 99 98 28 6 5 5 1 0 0 5 36 74 82 96 100 100 100 70 7 2 0 2 18 95 100 100 85 21 5 5 15 31 16 5 5 5 5 5 4 2 1 0
100 100 100 100 100 100 100 100 100 96 100 98 85 81 5 5 5 5 3 0 1 58 99 100 100 100 100 100 100 91 28 4 5 8 100 99 100 100 62 11 16 5 5 5 5 4 1 1 0 0 0 0 0 0
100 100 97 100 100 100 100 100 100 100 75 34 32 12 5 5 5 5 5 5 11 100 100 100 100 100 100 91 100 100 100 88 5 6 12 55 26 23 14 7 5 5 6 9 9 5 10 22 19 60 42 0 0 0
100 97 82 100 100 100 100 100 100 100 22 49 9 5 5 6 5 5 5 5 93 100 100 100 100 98 100 100 100 74 26 5 5 29 100 83 59 69 39 11 1 14 26 21 58 99 97 27 99 100 100 95 26 38
59 98 100 98 94 100 100 100 100 100 100 99 99 52 6 5 5 6 28 72 100 100 100 100 100 100 100 55 5 7 5 5 18 6 75 98 53 1 12 91 100 100 99 100 100 100 99 96 99 100 90 100 100 100
100 100 100 100 96 100 97 100 100 100 100 96 50 20 52 5 55 100 95 100 100 32 72 100 100 64 8 3 5 5 5 5 5 34 26 48 62 54 91 100 100 100 100 100 100 99 100 100 100 100 100 100 100 100
100 97 97 99 100 100 95 100 100 100 98 33 82 48 49 40 99 98 94 52 32 100 100 77 6 5 3 0 4 8 11 80 98 100 100 100 100 98 100 100 100 100 100 100 100 99 100 100 100 100 100 100 100 100
87 50 84 100 92 78 70 100 100 87 6 50 88 99 89 16 92 42 16 74 100 28 5 5 6 20 20 35 98 100 100 100 100 100 100 100 100 100 100 100 100 100 100 100 100 100 98 100 100 100 100 100 100 100
74 99 100 100 100 100 100 100 99 94 18 83 100 87 98 100 87 89 81 9 8 36 47 15 10 6 56 100 100 100 100 100 100 100 100 100 100 100 100 100 100 100 100 100 100 100 100 100 100 100 98 74 100 100
100 100 100 100 95 100 94 82 35 5 59 70 62 49 35 91 18 5 40 89 68 75 57 88 100 100 97 99 100 100 100 100 100 100 100 100 91 92 100 100 100 100 100 100 100 100 100 100 100 100 100 100 100 100
100 100 99 78 67 99 70 93 96 77 42 6 15 27 9 25 88 100 100 98 38 92 100 100 100 100 100 100 100 100 100 100 100 100 100 100 100 100 100 100 100 88 33 45 80 62 31 22 33 100 100 100 100 100
6 10 5 63 54 88 51 5 5 6 12 5 6 45 94 100 94 63 65 77 100 100 100 100 100 100 100 100 100 100 100 100 100 100 100 100 100 99 92 36 5 5 37 4 1 2 1 0 0 0 0 2 0 0
17 6 5 5 30 11 5 5 5 5 5 50 88 67 38 34 83 95 100 100 100 100 100 100 100 100 100 100 100 100 100 100 100 100 100 94 42 58 58 19 5 5 3 1 2 4 10 80 76 63 13 1 4 5
46 8 65 6 5 5 5 7 7 28 100 24 52 75 98 94 100 100 100 100 100 100 100 100 100 100 100 100 99 100 100 100 100 98 74 39 45 9 6 5 5 5 5 5 4 5 22 95 100 90 67 50 0 0
93 87 20 33 7 9 93 99 99 93 99 100 97 99 100 100 100 100 100 100 100 100 100 100 100 100 100 99 88 84 86 82 87 89 99 95 89 43 5 5 5 5 5 5 18 52 20 45 43 90 100 43 1 0
100 74 62 61 92 63 100 96 100 100 94 100 100 100 100 100 100 100 100 100 100 100 100 100 100 100 100 100 100 97 100 98 100 76 70 100 96 23 9 5 5 2 0 5 5 5 4 3 5 34 91 5 2 0
100 98 80 100 100 100 98 98 98 100 100 100 100 100 100 100 100 100 100 100 100 100 100 100 100 100 100 100 100 100 100 87 72 97 64 79 65 78 30 5 5 3 5 5 10 49 48 7 26 70 40 16 3 5
100 100 100 100 100 100 100 98 100 100 100 100 100 100 100 100 100 100 100 100 100 100 100 100 97 99 100 99 71 63 60 75 77 69 85 83 95 9 5 4 3 4 5 8 91 31 56 29 26 33 43 20 6 10
100 100 100 100 100 100 100 100 100 100 100 100 100 100 100 100 100 100 94 99 100 100 100 100 94 94 93 82 70 66 16 39 93 63 74 73 5 5 5 5 5 5 5 5 5 5 5 5 5 5 5 5 5 5
100 100 100 100 100 100 100 100 100 100 100 100 100 100 100 100 100 100 100 100 100 100 100 100 100 89 44 28 6 20 42 89 91 64 95 91 77 46 9 5 5 5 5 5 5 5 5 5 5 5 5 5 11 8